User: anonymous   Login
Location: Unspecified
(0.0000°N, 0.0000°E)
Time: 07:15:44
(UTC+00:00)
Language:

DNEPR OBJECT U - Orbit

View from above orbital plane
View from above orbital plane
View from above satellite
View from above satellite

Ground track
Ground track

The orbit data is extracted from the following two-line orbital elements,

1 39434U 13066U   19082.87799132 +.00002348 +00000-0 +16920-3 0  9993
2 39434 097.5902 159.1229 0033528 135.2644 225.1268 15.04698864291708
Epoch (UTC): 23 March 2019 21:04:18
Eccentricity: 0.0033528
inclination: 97.5902°
perigee height: 529 km
apogee height: 575 km
right ascension of ascending node: 159.1229°
argument of perigee: 135.2644°
revolutions per day: 15.04698864
mean anomaly at epoch: 225.1268°
orbit number at epoch: 29170

The dashed part of the orbit path shows where the satellite is in the earth's shadow,  

DLR